Change the Weather History Date:

Wednesday, January 16, 2013

  Actual Average (KP58) Record (KP58)
Temperature  
Mean Temperature 22 °F -  
Max Temperature 32 °F 25 °F 36 °F (2012)
Min Temperature 13 °F 15 °F -2 °F (2009)
Degree Days  
Heating Degree Days 42    
Moisture  
Dew Point 20 °F    
Average Humidity 80    
Maximum Humidity 93    
Minimum Humidity 58    
Precipitation  
Precipitation 0.00 in - - ()
Sea Level Pressure  
Sea Level Pressure 29.87 in    
Wind  
Wind Speed 7 mph (SW)    
Max Wind Speed 21 mph    
Max Gust Speed 29 mph    
Visibility 9 miles    
Events Snow    
Averages and records for this station are not official NWS values.
T = Trace of Precipitation, MM = Missing Value Source: NWS Daily Summary

Daily Weather History Graph

Daily Weather History Graph

Search for Another Location

Airport or City:

Trip Planner

Search our weather history database for the weather conditions in past years. The results will help you decide how hot, cold, wet, or windy it might be!

Date:

Astronomy

Jan. 16, 2013 Rise Set
Actual Time 8:02 AM EST 5:21 PM EST
Civil Twilight 7:30 AM EST 5:53 PM EST
Nautical Twilight 6:54 AM EST 6:29 PM EST
Astronomical Twilight 6:20 AM EST 7:03 PM EST
Moon 10:25 AM EST (1/16) 11:25 PM EST (1/16)
Length of Visible Light 10h 23m
Length of Day
9h 19m
Waxing Crescent, 28% of the Moon is Illuminated
Jan 16
Waxing Crescent
Jan 18
First Quarter
Jan 26
Full
Feb 3
Last Quarter
Feb 10
New

Hourly Weather History & Observations

Time (EST) Temp. Windchill Dew Point Humidity Pressure Visibility Wind Dir Wind Speed Gust Speed Precip Events Conditions
12:14 AM 15.4 °F - 12.2 °F 87% 30.12 in 10.0 mi Calm Calm - N/A   Clear
12:34 AM 15.6 °F 10.0 °F 12.9 °F 89% 30.11 in 10.0 mi South 3.5 mph - N/A   Clear
1:14 AM 14.4 °F - 12.0 °F 90% 30.10 in 10.0 mi Calm Calm - N/A   Clear
1:34 AM 14.4 °F - 12.2 °F 91% 30.09 in 10.0 mi Calm Calm - N/A   Clear
1:54 AM 15.3 °F - 13.1 °F 91% 30.08 in 10.0 mi Calm Calm - N/A   Scattered Clouds
2:14 AM 15.8 °F - 13.8 °F 92% 30.07 in 10.0 mi Calm Calm - N/A   Clear
2:34 AM 16.2 °F 10.6 °F 14.0 °F 91% 30.07 in 10.0 mi South 3.5 mph - N/A   Clear
2:54 AM 15.4 °F 8.1 °F 13.3 °F 91% 30.06 in 10.0 mi South 4.6 mph - N/A   Clear
3:14 AM 16.5 °F 9.4 °F 14.0 °F 90% 30.05 in 10.0 mi SSW 4.6 mph - N/A   Clear
3:34 AM 16.7 °F - 14.0 °F 89% 30.04 in 10.0 mi Calm Calm - N/A   Scattered Clouds
3:54 AM 16.5 °F 9.4 °F 13.6 °F 88% 30.04 in 10.0 mi SSW 4.6 mph - N/A   Scattered Clouds
4:13 AM 15.1 °F - 12.2 °F 88% 30.03 in 10.0 mi Calm Calm - N/A   Clear
4:34 AM 14.9 °F - 12.4 °F 90% 30.01 in 10.0 mi Calm Calm - N/A   Clear
4:54 AM 14.9 °F 9.2 °F 12.0 °F 88% 30.00 in 10.0 mi South 3.5 mph - N/A   Clear
5:14 AM 13.6 °F 7.7 °F 10.8 °F 88% 29.98 in 10.0 mi South 3.5 mph - N/A   Clear
5:34 AM 16.2 °F 7.6 °F 13.5 °F 89% 29.98 in 10.0 mi SSW 5.8 mph - N/A   Clear
5:54 AM 16.9 °F 6.4 °F 14.2 °F 89% 29.97 in 10.0 mi SSW 8.1 mph - N/A   Clear
6:14 AM 18.9 °F 8.8 °F 15.6 °F 87% 29.97 in 10.0 mi SSW 8.1 mph - N/A   Mostly Cloudy
6:34 AM 18.9 °F 8.8 °F 15.6 °F 87% 29.96 in 10.0 mi SSW 8.1 mph - N/A   Scattered Clouds
7:34 AM 17.6 °F 7.3 °F 14.5 °F 88% 29.93 in 10.0 mi SSW 8.1 mph - N/A   Clear
7:54 AM 17.1 °F 7.6 °F 14.0 °F 88% 29.92 in 10.0 mi SSW 6.9 mph - N/A   Clear
8:14 AM 17.6 °F 7.3 °F 14.7 °F 88% 29.91 in 10.0 mi SSW 8.1 mph - N/A   Clear
8:34 AM 18.5 °F 9.3 °F 15.4 °F 88% 29.91 in 10.0 mi SSW 6.9 mph - N/A   Clear
8:54 AM 19.6 °F 10.6 °F 16.3 °F 87% 29.90 in 10.0 mi SSW 6.9 mph - N/A   Clear
9:14 AM 20.5 °F 10.0 °F 17.1 °F 87% 29.90 in 10.0 mi SSW 9.2 mph - N/A   Clear
9:34 AM 21.6 °F 9.9 °F 17.6 °F 85% 29.90 in 10.0 mi SSW 11.5 mph - N/A   Clear
9:54 AM 22.8 °F 12.2 °F 18.3 °F 83% 29.89 in 10.0 mi SSW 10.4 mph - N/A   Clear
10:14 AM 24.3 °F 13.9 °F 19.4 °F 82% 29.87 in 10.0 mi SSW 10.4 mph - N/A   Clear
10:34 AM 25.7 °F 14.0 °F 19.4 °F 77% 29.86 in 10.0 mi SW 13.8 mph 19.6 mph N/A   Clear
10:54 AM 26.6 °F 17.5 °F 20.1 °F 77% 29.85 in 10.0 mi SSW 9.2 mph - N/A   Clear
11:14 AM 27.5 °F 15.9 °F 20.3 °F 74% 29.83 in 10.0 mi SSW 15.0 mph 18.4 mph N/A   Clear
11:34 AM 28.4 °F 18.0 °F 21.0 °F 74% 29.81 in 10.0 mi SSW 12.7 mph 18.4 mph N/A   Clear
11:54 AM 28.4 °F 17.0 °F 21.0 °F 74% 29.80 in 10.0 mi SSW 15.0 mph - N/A   Clear
12:14 PM 30.2 °F 19.3 °F 21.9 °F 71% 29.78 in 10.0 mi SW 15.0 mph 19.6 mph N/A   Clear
12:34 PM 30.7 °F 19.2 °F 21.4 °F 68% 29.77 in 10.0 mi SSW 17.3 mph 21.9 mph N/A   Clear
12:54 PM 30.4 °F 19.1 °F 21.2 °F 69% 29.75 in 10.0 mi SW 16.1 mph 21.9 mph N/A   Clear
1:14 PM 31.1 °F 20.1 °F 21.2 °F 67% 29.75 in 10.0 mi SW 16.1 mph 21.9 mph N/A   Clear
1:34 PM 32.0 °F 23.0 °F 21.0 °F 64% 29.73 in 10.0 mi SW 11.5 mph 20.7 mph N/A   Scattered Clouds
1:54 PM 32.0 °F 21.2 °F 19.8 °F 61% 29.72 in 10.0 mi SW 16.1 mph 21.9 mph N/A   Mostly Cloudy
2:14 PM 32.0 °F 22.1 °F 18.7 °F 58% 29.72 in 10.0 mi SW 13.8 mph 20.7 mph N/A   Overcast
2:34 PM 32.0 °F 21.6 °F 19.0 °F 59% 29.71 in 10.0 mi SW 15.0 mph 23.0 mph N/A   Overcast
2:54 PM 32.0 °F 21.2 °F 19.4 °F 60% 29.70 in 10.0 mi SW 16.1 mph 25.3 mph N/A   Overcast
3:14 PM 31.6 °F 20.0 °F 19.8 °F 62% 29.71 in 10.0 mi SW 18.4 mph 26.5 mph N/A   Overcast
3:34 PM 31.8 °F 20.6 °F 20.3 °F 62% 29.71 in 10.0 mi SW 17.3 mph 24.2 mph N/A   Overcast
3:54 PM 32.0 °F 21.2 °F 20.3 °F 62% 29.71 in 10.0 mi SW 16.1 mph 25.3 mph N/A   Mostly Cloudy
4:14 PM 32.0 °F 21.2 °F 20.5 °F 63% 29.71 in 10.0 mi SW 16.1 mph 24.2 mph N/A   Clear
4:35 PM 32.0 °F 20.5 °F 20.8 °F 63% 29.72 in 10.0 mi WSW 18.4 mph 28.8 mph N/A   Mostly Cloudy
4:54 PM 32.0 °F 21.2 °F 21.0 °F 64% 29.74 in 10.0 mi WSW 16.1 mph 26.5 mph N/A   Overcast
5:14 PM 32.0 °F 22.1 °F 21.2 °F 64% 29.74 in 10.0 mi SW 13.8 mph 28.8 mph N/A   Overcast
5:35 PM 32.0 °F 22.5 °F 21.6 °F 65% 29.75 in 10.0 mi WSW 12.7 mph 24.2 mph N/A   Overcast
5:54 PM 32.0 °F 21.2 °F 21.9 °F 66% 29.75 in 10.0 mi WSW 16.1 mph 23.0 mph N/A   Overcast
6:14 PM 32.0 °F 20.8 °F 21.9 °F 66% 29.76 in 10.0 mi WSW 17.3 mph 24.2 mph N/A   Overcast
6:34 PM 32.0 °F 20.8 °F 22.5 °F 68% 29.76 in 10.0 mi WSW 17.3 mph 24.2 mph N/A   Overcast
6:54 PM 32.0 °F 22.1 °F 23.0 °F 69% 29.78 in 10.0 mi WSW 13.8 mph 19.6 mph N/A   Overcast
7:15 PM 32.0 °F 22.5 °F 23.9 °F 72% 29.79 in 10.0 mi WSW 12.7 mph 23.0 mph N/A   Overcast
7:34 PM 31.6 °F 19.3 °F 24.8 °F 76% 29.79 in 10.0 mi WSW 20.7 mph 26.5 mph N/A   Overcast
7:54 PM 31.6 °F 21.2 °F 25.7 °F 79% 29.81 in 10.0 mi WSW 15.0 mph 27.6 mph N/A   Overcast
8:15 PM 31.3 °F 21.1 °F 26.1 °F 81% 29.81 in 10.0 mi WSW 13.8 mph 24.2 mph N/A   Overcast
8:34 PM 30.9 °F 21.7 °F 27.3 °F 86% 29.81 in 4.0 mi West 11.5 mph 25.3 mph N/A   Overcast
8:55 PM 30.7 °F 20.4 °F 28.0 °F 90% 29.81 in 5.0 mi WSW 13.8 mph 20.7 mph N/A   Overcast
9:14 PM 30.7 °F 20.0 °F 28.4 °F 91% 29.82 in 7.0 mi West 15.0 mph 19.6 mph N/A   Overcast
9:55 PM 31.1 °F 20.9 °F 29.3 °F 93% 29.84 in 4.0 mi West 13.8 mph 19.6 mph N/A Snow Light Snow
10:14 PM 31.1 °F 21.4 °F 29.3 °F 93% 29.85 in 4.0 mi West 12.7 mph 21.9 mph N/A Snow Light Snow
10:34 PM 31.1 °F 21.9 °F 29.3 °F 93% 29.85 in 5.0 mi West 11.5 mph 20.7 mph N/A Snow Light Snow
10:54 PM 31.1 °F 21.9 °F 29.3 °F 93% 29.85 in 7.0 mi West 11.5 mph - N/A   Overcast
11:13 PM 31.1 °F 22.4 °F 29.1 °F 92% 29.86 in 5.0 mi West 10.4 mph - N/A Snow Light Snow
11:34 PM 30.6 °F 22.4 °F 28.4 °F 92% 29.87 in 7.0 mi West 9.2 mph - N/A   Overcast
11:54 PM 30.2 °F 21.3 °F 28.4 °F 93% 29.89 in 10.0 mi West 10.4 mph 16.1 mph N/A   Mostly Cloudy